This is the latest recevied weather packets stored in our database for station/object N8BAP. If no packets are shown the sender has not sent any weather packets the latest 10 day(s).
| Time | Temp. | Humidity | Pressure | Rain* | Wind** | Luminosity | Snow |
|---|---|---|---|---|---|---|---|
| 1777482794 | 15.56° C | 93% | 1014.2 hPa | 4.32 mm | - | 127 W/m² | - |
| 1777482490 | 15.56° C | 93% | 1014.1 hPa | 3.05 mm | - | 189 W/m² | - |
| 1777482187 | 15.56° C | 92% | 1014.3 hPa | 1.78 mm | - | 163 W/m² | - |
| 1777481885 | 16.11° C | 91% | 1014.3 hPa | 0 mm | - | 94 W/m² | - |
| 1777481582 | 16.11° C | 90% | 1014.2 hPa | 0 mm | - | 66 W/m² | - |
| 1777481279 | 16.67° C | 91% | 1014.4 hPa | 0 mm | - | 204 W/m² | - |
| 1777480975 | 16.11° C | 90% | 1014.2 hPa | 0 mm | - | 300 W/m² | - |
| 1777480672 | 16.67° C | 89% | 1014.2 hPa | 0 mm | - | 175 W/m² | - |
| 1777480369 | 16.67° C | 88% | 1014.4 hPa | 0 mm | - | 121 W/m² | - |
| 1777480064 | 16.67° C | 89% | 1014.4 hPa | 0 mm | - | 237 W/m² | - |
| 1777479761 | 16.67° C | 88% | 1014.2 hPa | 0 mm | - | 223 W/m² | - |
| 1777479459 | 16.67° C | 90% | 1014.2 hPa | 0 mm | - | 258 W/m² | - |
| 1777479155 | 16.67° C | 89% | 1014.3 hPa | 0 mm | - | 262 W/m² | - |
| 1777478852 | 16.67° C | 91% | 1014.2 hPa | 0 mm | - | 279 W/m² | - |
| 1777478548 | 16.67° C | 93% | 1014.4 hPa | 0 mm | - | 327 W/m² | - |
| 1777478246 | 16.67° C | 94% | 1014.2 hPa | 0 mm | - | 310 W/m² | - |
| 1777477942 | 16.11° C | 95% | 1014.2 hPa | 0 mm | - | 324 W/m² | - |
| 1777477637 | 16.11° C | 96% | 1014.3 hPa | 0 mm | - | 274 W/m² | - |
| 1777477334 | 16.11° C | 96% | 1014.3 hPa | 0 mm | - | 351 W/m² | - |
| 1777477031 | 15.56° C | 96% | 1014.5 hPa | 1.78 mm | - | 388 W/m² | - |
| 1777476729 | 15° C | 97% | 1014.5 hPa | 4.83 mm | - | 323 W/m² | - |
| 1777476425 | 14.44° C | 96% | 1014.3 hPa | 6.1 mm | - | 292 W/m² | - |
| 1777476121 | 14.44° C | 96% | 1014.7 hPa | 8.89 mm | - | 147 W/m² | - |
| 1777475817 | 14.44° C | 96% | 1015.2 hPa | 7.11 mm | - | 56 W/m² | - |
| 1777475513 | 14.44° C | 96% | 1015 hPa | 3.05 mm | - | 41 W/m² | - |
* Rain latest hour (hover to see other rain measurements)
** Current wind speed in m/s (hover to see current wind gust speed)